TimeMST,TemperatureF,Dew PointF,Humidity,Sea Level PressureIn,VisibilityMPH,Wind Direction,Wind SpeedMPH,Gust SpeedMPH,PrecipitationIn,Events,Conditions,WindDirDegrees,DateUTC
12:53 AM,60.1,34.0,38,30.03,10.0,Calm,Calm,-,N/A,,Overcast,0,2012-11-18 07:53:00
1:53 AM,59.0,35.1,41,30.02,10.0,Calm,Calm,-,N/A,,Mostly Cloudy,0,2012-11-18 08:53:00
2:53 AM,55.9,37.0,49,30.02,10.0,Calm,Calm,-,N/A,,Partly Cloudy,0,2012-11-18 09:53:00
3:53 AM,55.9,37.0,49,30.01,10.0,Calm,Calm,-,N/A,,Partly Cloudy,0,2012-11-18 10:53:00
4:53 AM,57.0,37.0,47,30.01,10.0,Calm,Calm,-,N/A,,Overcast,0,2012-11-18 11:53:00
5:53 AM,57.0,37.0,47,30.03,10.0,Calm,Calm,-,N/A,,Mostly Cloudy,0,2012-11-18 12:53:00
6:53 AM,57.0,37.9,49,30.04,10.0,Calm,Calm,-,N/A,,Overcast,0,2012-11-18 13:53:00
7:53 AM,59.0,39.0,48,30.06,10.0,Calm,Calm,-,N/A,,Mostly Cloudy,0,2012-11-18 14:53:00
8:53 AM,64.0,37.9,38,30.06,10.0,Calm,Calm,-,N/A,,Clear,0,2012-11-18 15:53:00
9:53 AM,68.0,35.1,30,30.07,10.0,Calm,Calm,-,N/A,,Clear,0,2012-11-18 16:53:00
10:53 AM,71.1,37.0,29,30.07,10.0,South,3.5,-,N/A,,Clear,190,2012-11-18 17:53:00
11:53 AM,73.0,37.0,27,30.06,10.0,Variable,5.8,-,N/A,,Clear,0,2012-11-18 18:53:00
12:53 PM,73.9,37.9,27,30.03,10.0,Calm,Calm,-,N/A,,Clear,0,2012-11-18 19:53:00
1:53 PM,75.0,42.1,31,30.01,10.0,Variable,3.5,-,N/A,,Clear,0,2012-11-18 20:53:00
2:53 PM,75.9,41.0,29,30.01,10.0,Calm,Calm,-,N/A,,Clear,0,2012-11-18 21:53:00
3:53 PM,75.0,41.0,29,30.01,10.0,Calm,Calm,-,N/A,,Clear,0,2012-11-18 22:53:00
4:53 PM,75.0,41.0,29,30.02,10.0,Calm,Calm,-,N/A,,Clear,0,2012-11-18 23:53:00
5:53 PM,72.0,41.0,33,30.02,10.0,Calm,Calm,-,N/A,,Clear,0,2012-11-19 00:53:00
6:53 PM,70.0,42.1,36,30.04,10.0,Calm,Calm,-,N/A,,Clear,0,2012-11-19 01:53:00
7:53 PM,66.9,41.0,39,30.05,10.0,Calm,Calm,-,N/A,,Clear,0,2012-11-19 02:53:00
8:53 PM,66.0,41.0,40,30.05,10.0,NNE,4.6,-,N/A,,Clear,30,2012-11-19 03:53:00
9:53 PM,63.0,42.1,46,30.06,10.0,Calm,Calm,-,N/A,,Clear,0,2012-11-19 04:53:00
10:53 PM,60.1,42.1,51,30.06,10.0,Calm,Calm,-,N/A,,Clear,0,2012-11-19 05:53:00
11:53 PM,57.0,41.0,55,30.08,10.0,Calm,Calm,-,N/A,,Clear,0,2012-11-19 06:53:00